Regional Weather Roundup
Issued by NWS Cleveland, OH

Home | Current Version | Previous Version | Graphics & Text | Print | Product List | Glossary On
Versions: 1 2 3 4 5 6 7 8 9 10 11 12 13 14 15 16 17 18 19 20 21 22 23 24 25 26 27 28 29 30 31 32 33 34 35 36 37 38 39 40 41 42 43 44 45 46 47 48 49 50
766
ASUS41 KCLE 201500
RWRCLE
OHIO REGIONAL WEATHER ROUNDUP
NATIONAL WEATHER SERVICE WILMINGTON, OH
1000 AM EST SAT JAN 20 2018

NOTE: "FAIR" INDICATES FEW OR NO CLOUDS BELOW 12,000 FEET WITH NO
SIGNIFICANT WEATHER AND/OR OBSTRUCTIONS TO VISIBILITY.

OHZ001>008-015>018-024>027-034-035-043-044-201600-
   NORTHWEST OHIO

CITY           SKY/WX    TMP DP  RH WIND       PRES   REMARKS
DEFIANCE       NOT AVBL
FINDLAY        FAIR      37  25  61 SW14      29.99R
TOLEDO EXPRESS FAIR      35  27  72 SW16G23   29.96R WCI  25
TOLEDO EXEC    FAIR      34  26  72 SW14      29.98R WCI  25
LIMA           FAIR      35  25  66 SW13      30.00R WCI  26
$$

OHZ009>014-019>023-028>033-038-089-201600-
   NORTHEAST OHIO

CITY           SKY/WX    TMP DP  RH WIND       PRES   REMARKS
CLE-HOPKINS    PTSUNNY   39  26  59 SW16G25   30.00R
CLE-LAKEFRONT  FAIR      39  25  57 SW18      29.98R
CUY CO. ARPT   MOSUNNY   39  25  56 SW18      29.97R
LORAIN-ELYRIA  FAIR      36  22  56 SW16      29.99R
ASHTABULA      FAIR      36  23  59 SW12      29.97R
AKRON-CANTON   FAIR      36  23  59 SW20      30.00R
WOOSTER        NOT AVBL
MANSFIELD      FAIR      36  25  64 SW15      30.00R
YOUNGSTOWN     PTSUNNY   35  24  64 SW12      29.99R WCI  27
$$

OHZ042-051>053-060>062-070>072-077>081-201600-
  SOUTHWEST OHIO

CITY           SKY/WX    TMP DP  RH WIND       PRES   REMARKS
CINC-COVINGTON PTSUNNY   39  24  55 SW15G22   30.10R
CINC-LUNKEN    FAIR      40  24  53 SW15G22   30.13R
HAMILTON       FAIR      40  24  53 SW8       30.10S
DAYTON         NOT AVBL
WRIGHT-PAT AFB FAIR      36  17  47 SW17      30.06R
DAYTON GENERAL FAIR      36  23  59 SW10      30.07R
WILMINGTON     FAIR      35  26  69 SW17      30.07S WCI  25
$$

OHZ036-037-039>041-045>050-054>059-063>069-073>076-082>088-201600-
  CENTRAL AND SOUTHEAST OHIO

CITY           SKY/WX    TMP DP  RH WIND       PRES   REMARKS
COLUMBUS       PTSUNNY   37  25  61 SW12      30.07R
OSU AIRPORT    FAIR      37  25  61 SW14      30.05R
BOLTON FIELD   SUNNY     36  25  64 SW14      30.07R
RICKENBACK AFB NOT AVBL
NEWARK         FAIR      39  24  55 SW16G22   30.06R
MARION         FAIR      32  23  69 S12       30.03R WCI  23
LANCASTER      FAIR      39  25  57 SW14G23   30.08R
ZANESVILLE     FAIR      38  24  57 SW8       30.08R
NEW PHILLY     FAIR      38  23  55 SW9G20    30.06R
$$




USA.gov is the U.S. government's official web portal to all federal, state and local government web resources and services.